Reykjavik, Iceland

2:50 PM GMT on October 01, 2016 (GMT +0000)
Reykjavik

Weather History for BIRK - September, 2012

Change the Weather History Date:

Monday, September 17, 2012

  Actual Average Record
Temperature  
Mean Temperature 45 °F -  
Max Temperature 49 °F 50 °F 59 °F (1996)
Min Temperature 41 °F 42 °F 30 °F (2007)
Degree Days  
Heating Degree Days 20    
Moisture  
Dew Point 33 °F    
Average Humidity 63    
Maximum Humidity 81    
Minimum Humidity 47    
Precipitation  
Precipitation 0.00 in - - ()
Sea Level Pressure  
Sea Level Pressure 29.64 in    
Wind  
Wind Speed 12 mph ()    
Max Wind Speed 21 mph    
Max Gust Speed -    
Visibility 6.2 miles    
Events      
Averages and records for this station are not official NWS values.
T = Trace of Precipitation, MM = Missing Value Source: Averaged Metar Reports

Daily Weather History Graph

Daily Weather History Graph

Search for Another Location

Airport or City:

Trip Planner

Search our weather history database for the weather conditions in past years. The results will help you decide how hot, cold, wet, or windy it might be!

Date:

Astronomy

Sep. 17, 2012 Rise Set
Actual Time 6:57 AM GMT 7:45 PM GMT
Civil Twilight 6:08 AM GMT 8:33 PM GMT
Nautical Twilight 5:08 AM GMT 9:33 PM GMT
Astronomical Twilight 3:55 AM GMT 10:44 PM GMT
Moon 9:30 AM GMT (9/17) 7:13 PM GMT (9/17)
Length of Visible Light 14h 24m
Length of Day
12h 47m
Waxing Crescent, 3% of the Moon is Illuminated
Sep 17
Waxing Crescent
Sep 22
First Quarter
Sep 30
Full
Oct 8
Last Quarter
Oct 15
New

Hourly Weather History & Observations

Time (GMT) Temp. Windchill Dew Point Humidity Pressure Visibility Wind Dir Wind Speed Gust Speed Precip Events Conditions
12:00 AM 41 °F - 34 °F 68% 29.49 in 47 mi North 13.8 mph - -   Partly Cloudy
12:00 AM 41.0 °F 33.5 °F 32.0 °F 70% 29.47 in 6.2 mi North 13.8 mph - N/A   Scattered Clouds
1:00 AM 41.0 °F 33.9 °F 33.8 °F 76% 29.50 in 6.2 mi North 12.7 mph - N/A   Partly Cloudy
2:00 AM 41.0 °F 33.9 °F 32.0 °F 70% 29.50 in 6.2 mi North 12.7 mph - N/A   Partly Cloudy
3:00 AM 41.0 °F 33.5 °F 32.0 °F 70% 29.50 in 6.2 mi NNW 13.8 mph - N/A   Partly Cloudy
4:00 AM 41.0 °F 33.9 °F 33.8 °F 76% 29.53 in 6.2 mi NNW 12.7 mph - N/A   Partly Cloudy
5:00 AM 42.8 °F 35.4 °F 32.0 °F 66% 29.53 in - North 15.0 mph - N/A   Clear
6:00 AM 42 °F - 33 °F 62% 29.57 in 47 mi North 9.2 mph - -   Scattered Clouds
6:00 AM 42.8 °F 36.2 °F 32.0 °F 66% 29.56 in 6.2 mi North 12.7 mph - N/A   Mostly Cloudy
7:00 AM 42.8 °F 38.0 °F 33.8 °F 70% 29.56 in 6.2 mi North 8.1 mph - N/A   Mostly Cloudy
8:00 AM 42.8 °F 37.0 °F 33.8 °F 70% 29.59 in 6.2 mi North 10.4 mph - N/A   Mostly Cloudy
9:00 AM 44.6 °F 38.1 °F 32.0 °F 61% 29.59 in 6.2 mi NW 13.8 mph - N/A   Scattered Clouds
11:00 AM 44.6 °F 36.9 °F 32.0 °F 61% 29.65 in 6.2 mi NNW 18.4 mph - N/A   Scattered Clouds
12:00 PM 44 °F - 34 °F 57% 29.68 in 47 mi NW 8.1 mph - -   Scattered Clouds
12:00 PM 46.4 °F 39.5 °F 32.0 °F 57% 29.65 in 6.2 mi NW 17.3 mph - N/A   Scattered Clouds
1:00 PM 48.2 °F - 30.2 °F 50% 29.68 in 6.2 mi NNW 19.6 mph - N/A   Scattered Clouds
2:00 PM 46.4 °F 40.4 °F 30.2 °F 53% 29.68 in 6.2 mi NNW 13.8 mph - N/A   Scattered Clouds
3:00 PM 50.0 °F - 30.2 °F 47% 29.71 in 6.2 mi NNW 17.3 mph - N/A   Mostly Cloudy
4:00 PM 46.4 °F 39.5 °F 32.0 °F 57% 29.71 in 6.2 mi NNW 17.3 mph - N/A   Mostly Cloudy
5:00 PM 48.2 °F - 32.0 °F 54% 29.74 in 6.2 mi NNW 15.0 mph - N/A   Mostly Cloudy
6:00 PM 46 °F - 42 °F 81% 29.76 in 44 mi North 9.2 mph - -   Scattered Clouds
6:00 PM 46.4 °F 40.7 °F 33.8 °F 62% 29.74 in 6.2 mi NW 12.7 mph - N/A   Scattered Clouds
7:00 PM 48.2 °F - 32.0 °F 54% 29.77 in 6.2 mi NW 17.3 mph - N/A   Scattered Clouds
8:00 PM 46.4 °F 40.1 °F 30.2 °F 53% 29.77 in 6.2 mi NNW 15.0 mph - N/A   Partly Cloudy
9:00 PM 46.4 °F 38.7 °F 33.8 °F 62% 29.77 in 6.2 mi NNW 20.7 mph - N/A   Partly Cloudy
10:00 PM 44.6 °F 37.8 °F 33.8 °F 66% 29.80 in 6.2 mi NNW 15.0 mph - N/A   Partly Cloudy
11:00 PM 44.6 °F 37.4 °F 33.8 °F 66% 29.80 in - NNW 16.1 mph - N/A   Partly Cloudy